Wind_Speed
19 22 20 17 16 16 13 14 14 16 15 14 12 9 11 10 10 10 8 4 5 4 5 14 10 9 8 6 5 6 7 10 9 9 8 8 6 7 7 7 7 8 9 9 7 6 4 5 5
22 26 23 19 17 15 17 16 15 16 16 12 14 11 9 9 6 10 9 7 5 4 2 5 10 8 7 6 5 6 8 8 8 9 11 9 6 5 4 6 3 5 8 8 7 6 4 4 5
25 24 21 20 21 19 20 17 17 15 14 12 11 12 11 8 8 7 8 8 6 5 3 2 3 6 7 6 6 4 6 8 10 9 11 12 9 3 4 5 3 2 4 5 6 6 5 4 4
24 22 23 24 23 21 20 20 17 14 13 12 9 11 11 9 7 7 8 8 7 6 4 3 1 3 6 5 6 3 5 7 6 7 8 9 9 6 5 3 3 3 2 4 4 4 5 6 6
22 22 26 26 24 21 20 21 20 17 14 12 9 8 11 10 7 4 6 6 6 6 6 5 4 4 6 5 5 3 3 3 4 4 4 6 9 4 4 3 3 2 2 2 3 4 5 5 5
21 23 26 27 26 25 25 28 26 25 21 16 12 9 12 12 8 5 6 5 4 4 5 5 6 6 7 4 5 5 3 1 2 2 2 2 6 5 3 3 3 2 2 1 0 3 4 5 6
24 24 27 26 26 25 25 28 28 28 26 23 17 13 11 13 9 6 6 4 3 3 3 3 4 6 6 5 5 6 4 2 1 1 1 1 5 3 1 3 1 1 2 1 1 3 4 5 6
24 27 27 25 27 26 25 28 29 29 28 27 22 18 14 12 9 8 6 4 3 4 3 2 3 4 5 4 4 4 4 3 3 3 2 4 5 4 1 1 1 0 1 1 3 2 3 4 3
25 28 26 25 29 27 26 28 26 26 26 25 25 23 17 12 11 9 6 5 6 6 5 3 2 2 4 5 6 6 6 4 4 5 4 1 6 4 5 2 1 0 1 2 3 3 3 3 3
28 28 25 24 27 28 25 27 26 26 26 24 20 22 21 14 11 8 7 5 4 5 4 4 3 1 2 5 7 7 6 5 4 4 1 9 6 4 2 3 2 1 2 2 2 4 4 4 3
25 27 24 22 24 27 26 24 24 24 24 23 20 20 21 17 11 9 8 6 5 6 4 3 2 2 1 2 3 6 3 2 2 1 8 7 2 2 1 2 4 5 4 4 4 5 5 5 4
21 25 23 24 23 26 29 29 31 30 31 30 20 17 18 20 18 16 12 9 9 8 9 8 6 4 3 3 3 2 3 1 2 5 6 3 1 0 1 2 9 6 6 6 6 5 5 6 7
23 22 23 25 25 27 29 33 33 33 36 33 24 15 18 19 19 19 16 12 12 12 12 10 4 5 6 8 2 5 2 4 2 3 2 2 1 1 3 2 5 6 7 7 8 8 8 11 8
20 23 23 23 23 23 26 28 29 31 32 35 35 23 21 18 18 21 22 17 16 15 12 13 12 11 7 9 10 7 7 5 3 1 2 2 2 2 3 3 4 6 7 8 8 6 8 5 8
20 20 21 19 19 19 21 22 25 32 34 32 27 31 24 20 17 16 18 17 16 16 15 11 14 14 17 13 8 5 4 3 2 2 1 2 2 2 3 2 4 5 8 10 7 7 11 7 10
16 17 19 18 16 15 15 15 18 25 30 31 27 28 29 18 16 14 11 11 13 15 17 15 11 12 11 10 7 4 5 3 1 1 4 4 3 3 2 2 4 4 2 5 9 2 9 9 8
13 13 14 13 12 14 14 13 12 19 25 25 29 28 26 21 12 12 10 8 9 13 14 16 12 9 9 6 4 3 4 6 1 3 5 8 9 7 6 4 2 3 4 4 4 2 3 5 8
12 13 11 11 10 11 11 11 12 16 21 23 24 26 21 22 15 16 10 6 6 8 10 10 11 9 7 4 3 4 1 3 11 15 16 13 12 10 13 9 7 8 8 6 5 5 6 4 5
13 14 10 10 7 7 5 7 12 16 17 20 20 23 17 21 21 23 19 16 12 10 9 8 4 4 5 5 2 1 4 8 11 11 12 16 15 13 8 3 5 8 7 6 8 9 8 8 7
12 12 10 8 6 3 2 7 14 15 14 15 20 26 14 18 19 21 21 13 13 11 9 8 8 3 1 0 2 4 5 6 9 13 19 20 8 12 6 4 4 3 3 2 5 6 7 7 8
14 12 9 7 8 4 1 3 7 12 11 14 18 21 17 17 18 20 23 15 2 11 11 14 10 10 10 7 8 9 8 8 7 11 12 14 14 15 13 8 4 9 11 14 7 10 5 5 6
18 15 14 12 11 9 9 3 6 8 9 10 15 15 15 18 17 14 12 12 11 9 23 34 19 16 16 15 15 14 14 14 12 11 11 13 14 13 9 8 9 13 16 10 6 10 10 8 7
22 18 20 18 14 13 9 9 4 7 11 12 13 10 12 13 21 19 18 20 14 21 24 25 19 16 19 23 25 24 20 15 13 12 13 16 17 15 15 16 15 16 18 16 13 14 16 14 12
27 20 24 20 18 14 14 14 9 10 12 13 12 9 16 21 23 18 22 24 16 18 11 16 22 21 25 23 29 26 18 8 8 12 13 16 18 18 19 19 19 21 21 21 20 19 18 19 20
29 22 26 21 19 16 18 17 13 11 11 9 10 14 24 23 15 18 24 23 5 18 20 18 13 23 23 24 24 25 22 8 6 12 15 18 21 22 22 21 21 23 24 26 25 25 24 23 21
33 28 29 23 20 21 23 16 11 9 9 10 16 20 22 15 13 18 15 12 9 5 16 19 21 19 13 9 13 11 10 7 7 12 15 19 22 24 26 28 29 28 26 26 29 28 25 26 25
31 31 30 30 30 27 25 19 16 11 12 16 17 17 20 9 11 14 15 12 13 11 15 14 14 16 13 11 10 8 4 8 11 16 21 24 26 27 28 30 29 27 28 28 28 28 28 25 26
33 32 34 34 32 27 25 24 19 18 17 18 20 18 13 11 13 15 13 11 11 10 10 11 10 9 7 9 9 12 12 16 18 19 24 26 28 30 31 31 31 29 28 28 28 27 28 28 27
33 38 38 35 35 26 25 25 19 17 10 14 20 15 9 15 13 13 16 15 14 15 14 13 12 13 14 13 15 17 19 22 24 25 28 30 31 32 32 32 31 30 29 29 28 27 26 27 28
36 40 44 39 37 35 33 26 19 18 13 15 19 15 16 15 15 17 16 16 15 14 13 14 18 21 22 23 22 23 22 24 25 27 30 32 32 34 34 33 32 31 29 29 28 29 27 27 28
Wind_Direction
59 58 61 59 59 66 72 70 79 79 80 95 113 123 138 131 125 129 130 134 149 159 124 117 110 116 111 101 87 88 79 58 54 51 55 63 58 55 61 77 121 131 137 139 143 137 123 123 136
60 61 60 58 59 61 63 64 69 81 85 87 103 111 116 134 134 139 143 143 152 179 228 50 93 108 111 119 116 95 68 67 66 62 50 61 77 68 51 60 89 142 140 140 144 136 134 139 145
67 69 64 63 62 59 62 61 64 72 85 89 94 99 103 118 126 144 144 154 167 179 182 236 121 128 132 130 137 104 85 81 72 61 51 61 61 62 48 42 56 107 144 148 146 143 151 165 171
75 75 68 59 58 62 62 59 56 63 72 86 83 98 96 97 123 139 154 160 173 183 217 238 131 126 140 149 152 127 102 84 72 49 34 44 39 34 30 26 15 85 128 156 147 163 167 173 183
76 71 66 61 57 60 59 55 52 52 59 65 71 84 89 88 96 114 151 159 171 183 190 204 182 174 168 179 167 141 107 86 69 30 23 18 25 31 12 20 358 32 81 137 160 206 207 195 193
78 69 70 66 59 61 66 62 56 52 45 48 52 56 80 104 100 110 127 119 127 159 195 189 165 172 174 153 169 172 172 176 12 351 357 340 9 27 15 15 358 22 41 139 242 267 245 225 214
70 70 70 70 67 65 64 59 57 54 49 43 46 45 62 81 106 132 131 126 138 152 186 169 147 165 174 175 166 189 210 236 260 302 6 329 319 347 22 11 13 30 19 288 296 303 271 245 226
68 65 68 74 72 68 66 61 55 55 51 45 43 51 51 68 92 129 128 114 121 120 121 136 149 153 161 187 198 225 222 212 215 279 331 336 351 11 34 214 64 166 147 280 266 278 222 224 237
74 68 65 69 72 66 62 59 53 50 49 49 49 52 49 60 77 84 78 92 86 77 71 81 117 171 196 209 211 219 222 220 274 300 328 47 106 132 151 167 99 346 208 239 267 253 217 207 210
84 77 68 70 75 72 65 61 55 52 50 46 45 51 47 54 77 86 80 70 60 68 60 43 22 16 193 197 207 221 230 251 279 303 257 132 120 123 192 240 240 272 279 243 250 255 247 221 224
96 88 79 69 73 76 69 60 53 47 49 42 38 45 45 49 68 79 79 72 70 51 40 33 334 298 288 256 243 230 248 271 292 118 151 163 136 137 214 248 257 252 271 277 267 260 263 258 236
95 93 87 80 68 75 68 57 43 48 52 40 37 45 48 51 60 61 55 59 60 50 32 5 343 318 234 211 217 178 178 171 111 151 142 171 262 21 272 317 286 254 254 263 262 250 251 250 256
103 98 90 83 74 72 63 60 55 54 46 47 48 46 54 50 53 41 43 55 62 56 45 16 43 62 77 93 228 160 129 130 94 133 108 41 5 296 2 17 281 285 267 272 279 267 245 232 243
112 106 96 86 75 63 55 57 60 51 41 46 51 49 47 47 41 39 50 57 49 40 40 45 54 46 35 170 154 147 107 117 123 87 347 318 357 314 344 307 308 291 286 270 274 288 306 253 244
113 112 108 98 82 70 56 39 43 51 39 37 44 40 33 34 32 42 59 55 49 46 39 53 57 66 73 106 124 120 109 133 130 32 4 344 15 324 314 357 355 313 279 297 303 289 283 307 255
124 119 117 113 100 87 73 46 30 43 42 30 22 36 30 26 41 34 44 56 52 46 42 39 51 66 85 103 112 138 147 174 144 80 321 301 233 190 178 143 77 64 89 288 269 264 288 249 264
148 130 120 115 108 99 87 73 47 29 38 32 16 11 14 24 36 51 48 47 44 37 43 40 49 79 86 94 116 128 185 146 285 298 279 272 234 222 196 173 164 93 68 69 62 26 348 326 284
176 147 145 120 111 103 89 63 47 37 27 22 15 5 4 12 13 20 20 18 39 44 37 54 60 67 78 80 139 175 252 250 242 250 264 262 256 232 201 176 134 87 70 50 48 38 23 359 1
164 173 165 149 150 118 74 40 47 35 26 15 7 350 353 1 29 3 343 323 348 23 32 13 29 68 55 68 105 350 323 313 298 333 308 282 267 243 235 102 146 109 63 62 49 40 29 30 26
181 190 190 188 185 178 104 81 44 33 29 10 357 352 348 354 358 351 355 351 317 331 347 346 316 296 143 141 260 258 273 303 338 344 348 8 354 1 334 220 142 152 201 348 21 24 27 19 14
214 213 224 220 236 228 198 65 33 28 26 8 348 2 9 4 359 345 348 14 256 302 308 311 293 274 269 240 246 259 270 290 327 335 351 341 1 21 22 23 168 261 262 247 230 304 325 336 351
219 224 226 238 259 252 265 287 32 16 5 356 339 357 354 350 338 329 7 351 0 306 302 306 281 260 266 279 272 278 287 297 306 318 333 333 331 340 342 323 305 301 310 327 309 288 284 279 299
223 231 233 235 254 261 281 288 304 321 337 337 343 347 343 344 327 320 317 307 340 330 307 307 249 259 249 267 264 270 261 256 290 319 340 338 329 326 315 310 302 297 302 305 298 292 298 294 290
229 227 235 239 251 257 273 287 312 310 328 334 345 319 328 336 341 323 312 305 322 23 346 308 238 252 244 257 257 265 252 233 293 311 330 332 324 314 307 305 299 295 290 285 287 285 280 284 287
237 223 236 239 238 252 268 280 302 330 327 329 332 316 326 332 346 348 320 309 12 31 4 323 298 296 273 294 297 265 261 294 326 309 321 326 323 320 313 308 300 293 288 285 281 277 275 272 271
234 224 238 236 241 247 271 274 295 310 312 303 300 316 317 335 25 21 19 76 95 67 61 55 69 57 77 86 63 48 48 281 297 305 312 312 312 311 312 310 309 305 295 285 280 279 279 274 270
230 225 230 236 250 256 269 271 282 279 284 296 312 332 323 319 17 16 33 11 42 48 48 42 48 46 36 42 36 20 337 314 307 303 306 308 309 309 310 307 304 300 298 296 290 278 270 276 274
226 225 226 232 247 254 266 278 276 286 282 285 293 327 347 349 359 357 5 12 357 20 35 35 26 45 7 10 339 315 311 298 297 300 301 301 303 305 305 306 305 302 299 294 291 291 279 268 269
230 225 228 236 243 249 263 272 286 296 298 293 293 322 342 6 2 347 342 338 338 347 355 1 357 352 357 340 328 315 301 291 290 293 293 296 302 305 306 304 302 300 297 293 293 291 287 282 273
233 229 230 234 241 250 258 264 276 280 288 284 300 305 317 296 346 350 333 324 321 331 339 347 348 349 341 328 320 309 302 296 294 293 293 294 305 307 300 296 296 295 291 290 289 289 288 285 280
Height
5889 5888 5887 5887 5888 5884 5883 5881 5879 5877 5877 5877 5878 5879 5879 5879 5879 5882 5881 5882 5882 5883 5882 5878 5881 5886 5887 5889 5891 5892 5893 5893 5893 5893 5893 5892 5893 5893 5891 5890 5890 5891 5892 5892 5893 5895 5895 5895 5896
5892 5891 5891 5890 5889 5887 5884 5882 5880 5879 5878 5879 5878 5878 5879 5880 5880 5881 5882 5882 5883 5883 5882 5882 5885 5886 5888 5891 5892 5893 5894 5895 5894 5895 5895 5894 5894 5894 5893 5891 5892 5893 5893 5894 5894 5895 5895 5895 5896
5896 5895 5895 5893 5890 5888 5885 5884 5882 5881 5880 5880 5879 5879 5879 5881 5881 5882 5882 5883 5883 5884 5885 5885 5887 5888 5890 5891 5892 5894 5896 5896 5896 5895 5896 5894 5895 5895 5894 5893 5893 5894 5894 5895 5895 5895 5896 5896 5896
5900 5900 5898 5894 5893 5891 5889 5887 5886 5884 5882 5881 5880 5880 5880 5881 5881 5882 5883 5883 5884 5885 5885 5886 5887 5889 5890 5891 5892 5895 5896 5896 5896 5896 5896 5895 5895 5895 5895 5895 5895 5895 5896 5896 5896 5896 5896 5897 5897
5904 5902 5899 5897 5896 5894 5892 5890 5890 5888 5886 5884 5883 5882 5881 5881 5883 5883 5884 5885 5885 5886 5886 5887 5888 5889 5890 5891 5893 5895 5896 5897 5897 5896 5896 5895 5895 5895 5895 5896 5896 5896 5896 5897 5897 5896 5896 5896 5897
5907 5905 5902 5900 5899 5897 5895 5893 5892 5889 5888 5887 5885 5885 5883 5882 5883 5883 5885 5886 5886 5886 5887 5887 5888 5890 5891 5892 5893 5895 5896 5896 5896 5896 5896 5895 5894 5895 5896 5896 5896 5896 5896 5897 5897 5896 5896 5896 5895
5908 5907 5905 5904 5903 5902 5900 5897 5895 5893 5891 5889 5887 5886 5885 5883 5883 5885 5885 5886 5886 5887 5887 5887 5888 5889 5891 5891 5892 5893 5894 5895 5895 5894 5894 5893 5892 5894 5895 5896 5897 5897 5896 5895 5896 5896 5895 5894 5893
5911 5909 5908 5909 5907 5907 5904 5900 5897 5895 5894 5892 5891 5888 5887 5886 5885 5886 5887 5887 5888 5888 5888 5888 5887 5888 5890 5891 5892 5892 5893 5894 5893 5893 5892 5892 5892 5893 5894 5895 5896 5896 5896 5895 5895 5895 5893 5893 5893
5914 5912 5912 5912 5909 5909 5906 5903 5902 5899 5897 5896 5894 5891 5889 5887 5888 5889 5889 5889 5889 5889 5889 5888 5888 5889 5890 5891 5891 5891 5891 5892 5893 5893 5891 5891 5892 5892 5893 5895 5895 5894 5894 5894 5894 5894 5893 5893 5892
5915 5916 5916 5916 5913 5911 5910 5908 5906 5903 5900 5898 5897 5893 5892 5889 5889 5890 5890 5890 5890 5889 5888 5889 5889 5889 5889 5889 5889 5889 5890 5892 5893 5892 5892 5892 5893 5893 5893 5893 5894 5893 5893 5893 5892 5892 5891 5891 5891
5917 5918 5918 5919 5917 5915 5913 5912 5910 5907 5903 5902 5900 5897 5895 5893 5891 5891 5891 5891 5890 5890 5889 5889 5889 5889 5889 5890 5890 5890 5891 5891 5892 5892 5892 5893 5893 5892 5892 5892 5892 5892 5891 5891 5890 5890 5890 5890 5889
5921 5920 5921 5921 5920 5918 5916 5915 5914 5911 5909 5905 5901 5899 5897 5896 5895 5894 5893 5892 5891 5890 5890 5890 5889 5888 5889 5889 5890 5891 5891 5892 5892 5893 5893 5893 5893 5892 5891 5891 5890 5890 5890 5889 5888 5888 5888 5888 5888
5923 5923 5923 5923 5922 5921 5919 5917 5917 5915 5912 5908 5903 5901 5900 5899 5898 5896 5896 5895 5894 5892 5892 5890 5888 5888 5887 5886 5889 5892 5892 5893 5893 5894 5894 5893 5893 5892 5891 5889 5888 5888 5888 5887 5886 5886 5885 5885 5884
5925 5925 5925 5925 5923 5923 5922 5921 5919 5917 5914 5911 5907 5905 5903 5902 5901 5899 5898 5899 5898 5897 5895 5892 5890 5889 5887 5888 5890 5893 5893 5894 5894 5894 5894 5893 5891 5891 5889 5888 5887 5887 5886 5885 5884 5884 5884 5883 5883
5926 5926 5925 5926 5925 5924 5923 5922 5921 5919 5916 5914 5911 5909 5907 5905 5904 5903 5901 5901 5900 5899 5898 5895 5892 5892 5891 5892 5894 5895 5894 5893 5892 5892 5892 5891 5890 5889 5888 5887 5886 5885 5884 5884 5882 5882 5882 5882 5882
5928 5927 5926 5926 5925 5925 5924 5924 5922 5921 5919 5916 5913 5912 5909 5907 5905 5905 5904 5902 5901 5900 5899 5897 5896 5895 5895 5895 5896 5895 5894 5893 5892 5891 5891 5890 5888 5886 5885 5884 5884 5884 5883 5884 5881 5881 5880 5881 5880
5929 5930 5928 5928 5927 5926 5926 5924 5922 5921 5921 5919 5916 5913 5911 5909 5907 5906 5905 5903 5903 5902 5900 5898 5897 5896 5896 5896 5895 5895 5894 5893 5892 5891 5889 5887 5885 5884 5883 5882 5883 5882 5883 5882 5882 5882 5881 5880 5878
5931 5931 5929 5929 5929 5928 5928 5926 5924 5922 5922 5920 5918 5915 5912 5911 5911 5912 5911 5907 5905 5903 5901 5899 5898 5898 5897 5897 5896 5894 5895 5894 5887 5885 5883 5883 5883 5880 5879 5879 5881 5881 5882 5883 5882 5881 5881 5880 5878
5930 5930 5929 5929 5929 5929 5928 5928 5927 5925 5923 5921 5918 5916 5914 5914 5916 5914 5912 5912 5911 5906 5903 5902 5899 5897 5898 5896 5896 5893 5892 5890 5888 5885 5881 5882 5882 5880 5875 5878 5880 5880 5881 5881 5880 5880 5879 5878 5877
5929 5928 5928 5929 5929 5930 5929 5929 5928 5927 5925 5922 5919 5916 5915 5916 5914 5914 5911 5910 5911 5909 5905 5902 5902 5900 5896 5896 5895 5892 5890 5888 5886 5886 5885 5883 5882 5880 5879 5880 5881 5880 5880 5881 5879 5877 5877 5877 5876
5925 5925 5926 5928 5928 5929 5929 5929 5928 5928 5926 5924 5921 5918 5915 5913 5913 5913 5909 5904 5906 5906 5905 5903 5902 5901 5897 5893 5892 5891 5888 5886 5883 5882 5885 5885 5883 5883 5884 5883 5881 5880 5878 5874 5872 5876 5875 5874 5872
5922 5924 5925 5926 5928 5929 5928 5929 5927 5927 5926 5925 5922 5920 5915 5910 5910 5911 5910 5904 5905 5903 5902 5898 5899 5897 5896 5895 5893 5892 5890 5887 5883 5880 5883 5883 5883 5883 5884 5883 5881 5877 5876 5874 5873 5874 5873 5871 5871
5920 5921 5923 5924 5926 5927 5926 5926 5926 5926 5925 5924 5923 5921 5915 5911 5905 5905 5907 5903 5902 5900 5895 5893 5893 5892 5893 5890 5887 5887 5886 5886 5884 5881 5876 5877 5877 5877 5877 5878 5877 5875 5873 5871 5871 5871 5869 5869 5867
5915 5919 5920 5921 5923 5924 5924 5924 5924 5923 5924 5923 5921 5918 5915 5911 5908 5904 5901 5897 5897 5895 5891 5887 5885 5885 5882 5885 5883 5885 5883 5882 5882 5881 5876 5874 5874 5873 5872 5872 5870 5869 5868 5866 5865 5864 5864 5865 5865
5911 5915 5916 5919 5921 5922 5921 5921 5921 5921 5921 5921 5920 5916 5913 5910 5907 5903 5898 5895 5893 5894 5889 5881 5879 5880 5879 5881 5882 5880 5883 5880 5878 5877 5874 5872 5871 5870 5868 5866 5865 5864 5863 5861 5860 5859 5859 5857 5856
5906 5911 5912 5913 5916 5917 5918 5919 5920 5920 5920 5919 5917 5915 5911 5909 5905 5901 5895 5891 5891 5892 5890 5885 5877 5875 5876 5880 5877 5878 5878 5878 5876 5876 5874 5872 5870 5867 5863 5860 5857 5856 5856 5854 5853 5853 5852 5852 5851
5900 5904 5908 5909 5911 5913 5914 5916 5916 5917 5917 5916 5914 5913 5909 5907 5903 5902 5899 5896 5894 5893 5889 5886 5883 5874 5878 5876 5877 5877 5877 5876 5874 5873 5871 5868 5865 5861 5857 5854 5851 5849 5847 5846 5846 5844 5842 5843 5843
5895 5900 5903 5905 5906 5908 5909 5911 5912 5912 5913 5913 5912 5911 5908 5905 5902 5900 5898 5895 5893 5892 5888 5887 5885 5879 5880 5875 5875 5876 5874 5874 5871 5867 5866 5864 5859 5854 5851 5848 5845 5841 5839 5837 5836 5836 5836 5834 5834
5890 5893 5896 5899 5901 5903 5905 5907 5909 5908 5909 5909 5908 5907 5907 5904 5901 5900 5897 5893 5891 5889 5886 5884 5882 5879 5874 5873 5874 5872 5871 5869 5866 5864 5861 5858 5853 5850 5846 5842 5838 5835 5832 5830 5827 5827 5826 5826 5826
5881 5884 5889 5893 5897 5899 5901 5904 5906 5905 5905 5905 5904 5903 5902 5900 5899 5897 5895 5892 5890 5887 5885 5882 5879 5875 5872 5872 5871 5871 5868 5866 5862 5859 5856 5853 5847 5842 5841 5837 5832 5828 5825 5822 5820 5818 5817 5817 5816